Ann Arbor, MI

8:04 PM EST on February 10, 2016 (GMT -0500)
Polo Fields | | Change Station
CLOSE
Current Station
Personal Weather Station
Location: Ann Arbor, MI
Elevation: 912 ft
Nearby Weather Stations

Elev 912 ft 42.27 °N, 83.82 °W | Updated 16 seconds ago

Overcast
Overcast
15.8 °F
Feels Like 6 °F
N
7.3
Wind Variable Wind from NNE
Gusts 15.5 mph

Today
High -- | Low -- °F
--% Chance of Precip.
Yesterday
High -- | Low -- °F
Precip. -- in
Pressure 29.99 in
Visibility 10.0 miles
Clouds Few 4500 ft
Overcast 6500 ft
Windchill 6 °F
Dew Point 8 °F
Humidity 69%
Rainfall 0.00 in
Snow Depth Not available.
7:38 AM 6:00 PM
Waxing Crescent, 8% visible
METAR KARB 110053Z AUTO 30011KT 10SM FEW045 OVC065 M08/M14 A2995 RMK AO2 SNE17 SLP156 P0000 T10831139 TSNO
Pressure 29.99 in
Visibility 10.0 miles
Clouds Few 4500 ft
Overcast 6500 ft
Windchill 6 °F
Dew Point 8 °F
Humidity 69%
Rainfall 0.00 in
Snow Depth Not available.
7:38 AM 6:00 PM
Waxing Crescent, 8% visible
METAR KARB 110053Z AUTO 30011KT 10SM FEW045 OVC065 M08/M14 A2995 RMK AO2 SNE17 SLP156 P0000 T10831139 TSNO

10-Day Weather Forecast

Almanac

Astronomy

Feb. 10, 2016 Rise Set
Actual Time
Civil Twilight
Nautical Twilight
Astronomical Twilight
Moon
Length of Visible Light
Length of Day
Tomorrow will be .
, % of the Moon is Illuminated

Today's Extremes

State Highs State Lows

Community

WunderPhotos

Upload Photos

1,891,956 photos uploaded!

WunderBlog® & News

Nearby

Air Quality

  Air Quality AQ Index Pollutant
Not available.

Snow Depth

Station Depth Elevation

Earthquake Activity

City Distance Mag. Time & Date
Minimum magnitude displayed is 2.5.

Coastal Water Temperatures

Place Temperature

Stations

Nearby Weather Stations

Station Location Temp. Windchill Dew Point Humidity Wind Precip. Elev Updated Type
                   

Watches & Warnings

There are currently no watches in effect.